This is the latest recevied weather packets stored in our database for station/object N7ZAP. If no packets are shown the sender has not sent any weather packets the latest 10 day(s).
| Time | Temp. | Humidity | Pressure | Rain* | Wind** | Luminosity | Snow |
|---|---|---|---|---|---|---|---|
| 1777586161 | 26.67° C | 11% | 1010 hPa | 0 mm | - | - | - |
| 1777585859 | 26.67° C | 11% | 1010.3 hPa | 0 mm | - | - | - |
| 1777585558 | 26.67° C | 10% | 1010.3 hPa | 0 mm | - | - | - |
| 1777585255 | 27.22° C | 10% | 1010.3 hPa | 0 mm | - | - | - |
| 1777584949 | 27.22° C | 11% | 1010.8 hPa | 0 mm | - | - | - |
| 1777584647 | 26.67° C | 11% | 1010.7 hPa | 0 mm | - | - | - |
| 1777584344 | 26.67° C | 10% | 1010.8 hPa | 0 mm | - | - | - |
| 1777584040 | 26.67° C | 10% | 1010.8 hPa | 0 mm | - | - | - |
| 1777583734 | 26.67° C | 11% | 1010.8 hPa | 0 mm | - | - | - |
| 1777583433 | 26.67° C | 10% | 1010.8 hPa | 0 mm | - | - | - |
| 1777583133 | 26.11° C | 11% | 1010.8 hPa | 0 mm | - | - | - |
| 1777582829 | 26.11° C | 10% | 1011.1 hPa | 0 mm | - | - | - |
| 1777582526 | 26.11° C | 11% | 1011.3 hPa | 0 mm | - | - | - |
| 1777582221 | 26.67° C | 11% | 1011.2 hPa | 0 mm | - | - | - |
| 1777581919 | 26.11° C | 11% | 1011.2 hPa | 0 mm | - | - | - |
| 1777581614 | 26.11° C | 11% | 1011.2 hPa | 0 mm | - | - | - |
| 1777581309 | 26.11° C | 10% | 1011.3 hPa | 0 mm | - | - | - |
| 1777581004 | 26.67° C | 11% | 1011.8 hPa | 0 mm | - | - | - |
| 1777580703 | 25.56° C | 11% | 1011.5 hPa | 0 mm | - | - | - |
| 1777580399 | 25.56° C | 11% | 1011.7 hPa | 0 mm | - | - | - |
| 1777580096 | 25° C | 11% | 1011.7 hPa | 0 mm | - | - | - |
| 1777579792 | 25° C | 11% | 1011.9 hPa | 0 mm | - | - | - |
| 1777579490 | 24.44° C | 12% | 1011.9 hPa | 0 mm | - | - | - |
| 1777579185 | 24.44° C | 12% | 1012.2 hPa | 0 mm | - | - | - |
| 1777578881 | 25° C | 12% | 1012.2 hPa | 0 mm | - | - | - |
* Rain latest hour (hover to see other rain measurements)
** Current wind speed in m/s (hover to see current wind gust speed)